,,,PA_Meas_PMT16A,,PR_Meas_QMR101_102,,RH_Meas_QMH101,,SR_Meas_QMS101,,TA_Meas_QMH101,,GenWind,,GenWind,
date,time,status,PA,status,PR,status,RH,status,SR,status,TA,status,DirAvg,status,SpdAvg,
2012-05-21, 00:00:05,VALID,1008.61,VALID,0,VALID,102.803,VALID,0,VALID,26.1306,VALID,15,VALID,1.77656,
2012-05-21, 00:01:05,VALID,1008.55,VALID,0,VALID,102.612,VALID,0,VALID,26.0701,VALID,49,VALID,2.28906,
2012-05-21, 00:02:05,VALID,1008.54,VALID,0,VALID,102.582,VALID,0,VALID,26.0701,VALID,45,VALID,2.25586,
2012-05-21, 00:03:05,VALID,1008.54,VALID,0,VALID,102.841,VALID,0.112112,VALID,26.0506,VALID,337,VALID,1.13398,
2012-05-21, 00:04:05,VALID,1008.49,VALID,0,VALID,102.62,VALID,0.112112,VALID,26.0116,VALID,339,VALID,1.58086,
2012-05-21, 00:05:05,VALID,1008.5,VALID,0,VALID,102.307,VALID,0.112112,VALID,25.9921,VALID,307,VALID,1.35977,
2012-05-21, 00:06:05,VALID,1008.43,VALID,0,VALID,102.071,VALID,0.112112,VALID,25.9726,VALID,313,VALID,1.64688,
2012-05-21, 00:07:05,VALID,1008.41,VALID,0,VALID,101.888,VALID,0,VALID,25.9726,VALID,327,VALID,0.954687,
2012-05-21, 00:08:05,VALID,1008.36,VALID,0,VALID,101.903,VALID,0,VALID,25.9726,VALID,323,VALID,1.71094,
2012-05-21, 00:09:05,VALID,1008.25,VALID,0,VALID,99.3026,VALID,0,VALID,25.9141,VALID,320,VALID,2.46641,
2012-05-21, 00:10:05,VALID,1008.22,VALID,0,VALID,98.8298,VALID,0,VALID,25.8751,VALID,326,VALID,2.04492,
2012-05-21, 00:11:05,VALID,1008.17,VALID,0,VALID,99.6305,VALID,0,VALID,25.8771,VALID,348,VALID,0.980469,
2012-05-21, 00:12:05,VALID,1008.16,VALID,0,VALID,99.9431,VALID,0.112112,VALID,25.8361,VALID,20,VALID,1.27891,
2012-05-21, 00:13:05,VALID,1008.18,VALID,0,VALID,86.4379,VALID,0.112112,VALID,25.7192,VALID,360,VALID,2.32891,
2012-05-21, 00:14:05,VALID,1008.26,VALID,0,VALID,86.11,VALID,0.112112,VALID,25.6412,VALID,347,VALID,1.28242,
2012-05-21, 00:15:05,VALID,1008.37,VALID,0,VALID,85.0577,VALID,0.112112,VALID,25.5437,VALID,317,VALID,1.30742,
2012-05-21, 00:16:05,VALID,1008.47,VALID,0,VALID,85.0348,VALID,0,VALID,25.4852,VALID,316,VALID,1.56953,
2012-05-21, 00:17:05,VALID,1008.55,VALID,0,VALID,84.8441,VALID,0.112112,VALID,25.3683,VALID,331,VALID,1.65781,
2012-05-21, 00:18:05,VALID,1008.64,VALID,0,VALID,85.8279,VALID,0,VALID,25.2708,VALID,29,VALID,1.68945,
2012-05-21, 00:19:05,VALID,1008.64,VALID,0,VALID,86.2473,VALID,0.112112,VALID,25.1733,VALID,23,VALID,0.9375,
2012-05-21, 00:20:05,VALID,1008.69,VALID,0,VALID,87.9249,VALID,0,VALID,25.0954,VALID,240,VALID,0.319531,
2012-05-21, 00:21:05,VALID,1008.69,VALID,0,VALID,87.6657,VALID,0.112112,VALID,25.0564,VALID,356,VALID,1.67383,
2012-05-21, 00:22:05,VALID,1008.72,VALID,0,VALID,88.108,VALID,0.112112,VALID,24.9979,VALID,308,VALID,2.2,
2012-05-21, 00:23:05,VALID,1008.66,VALID,0,VALID,88.7485,VALID,0,VALID,24.9218,VALID,4,VALID,1.08867,
2012-05-21, 00:24:05,VALID,1008.61,VALID,0,VALID,89.7246,VALID,0,VALID,24.8633,VALID,307,VALID,1.23125,
2012-05-21, 00:25:05,VALID,1008.58,VALID,0,VALID,90.6397,VALID,0,VALID,24.8049,VALID,36,VALID,2.05508,
2012-05-21, 00:26:05,VALID,1008.54,VALID,0,VALID,91.9437,VALID,0,VALID,24.7464,VALID,7,VALID,0.811328,
2012-05-21, 00:27:05,VALID,1008.57,VALID,0,VALID,93.1181,VALID,0,VALID,24.7074,VALID,9,VALID,0.335156,
2012-05-21, 00:28:05,VALID,1008.6,VALID,0,VALID,94.4526,VALID,0,VALID,24.6489,VALID,9,VALID,1.37578,
2012-05-21, 00:29:05,VALID,1008.65,VALID,0,VALID,95.2533,VALID,0.112112,VALID,24.5905,VALID,326,VALID,1.89961,
2012-05-21, 00:30:05,VALID,1008.67,VALID,0,VALID,96.5802,VALID,0,VALID,24.5515,VALID,322,VALID,1.35703,
2012-05-21, 00:31:05,VALID,1008.71,VALID,0,VALID,98.784,VALID,0,VALID,24.493,VALID,335,VALID,1.30273,
2012-05-21, 00:32:05,VALID,1008.69,VALID,0,VALID,99.7296,VALID,0,VALID,24.4735,VALID,352,VALID,2.31016,
2012-05-21, 00:33:05,VALID,1008.66,VALID,0,VALID,100.622,VALID,0,VALID,24.4345,VALID,26,VALID,2.12344,
2012-05-21, 00:34:05,VALID,1008.68,VALID,0,VALID,100.805,VALID,0,VALID,24.3761,VALID,33,VALID,1.78086,
2012-05-21, 00:35:05,VALID,1008.67,VALID,0,VALID,100.965,VALID,0,VALID,24.3176,VALID,38,VALID,1.78437,
2012-05-21, 00:36:05,VALID,1008.76,VALID,0,VALID,101.224,VALID,0,VALID,24.2591,VALID,28,VALID,0.797656,
2012-05-21, 00:37:05,VALID,1008.76,VALID,0,VALID,101.278,VALID,0,VALID,24.2202,VALID,339,VALID,2.74023,
2012-05-21, 00:38:05,VALID,1008.81,VALID,0,VALID,101.537,VALID,0,VALID,24.1617,VALID,15,VALID,3.40078,
2012-05-21, 00:39:05,VALID,1008.77,VALID,0,VALID,101.758,VALID,0,VALID,24.1227,VALID,341,VALID,2.28594,
2012-05-21, 00:40:05,VALID,1008.77,VALID,0,VALID,102.185,VALID,0,VALID,24.0643,VALID,17,VALID,1.01953,
2012-05-21, 00:41:05,VALID,1008.77,VALID,0,VALID,102.421,VALID,0,VALID,24.0448,VALID,325,VALID,1.04805,
2012-05-21, 00:42:05,VALID,1008.81,VALID,0,VALID,102.544,VALID,0,VALID,24.0253,VALID,354,VALID,1.83359,
2012-05-21, 00:43:05,VALID,1008.84,VALID,0,VALID,102.688,VALID,0,VALID,24.0448,VALID,323,VALID,1.43242,
2012-05-21, 00:44:05,VALID,1008.88,VALID,0,VALID,102.772,VALID,0,VALID,24.0448,VALID,349,VALID,1.63594,
2012-05-21, 00:45:05,VALID,1008.9,VALID,0,VALID,102.742,VALID,0,VALID,24.0837,VALID,11,VALID,3.10273,
2012-05-21, 00:46:05,VALID,1008.91,VALID,0,VALID,102.65,VALID,0.112112,VALID,24.1227,VALID,352,VALID,1.41445,
2012-05-21, 00:47:05,VALID,1008.98,VALID,0,VALID,102.955,VALID,0,VALID,24.1422,VALID,356,VALID,1.19219,
2012-05-21, 00:48:05,VALID,1009.02,VALID,0,VALID,103.062,VALID,0,VALID,24.1227,VALID,342,VALID,2.64102,
2012-05-21, 00:49:05,VALID,1009.05,VALID,0,VALID,103.962,VALID,0,VALID,24.1032,VALID,346,VALID,1.92227,
2012-05-21, 00:50:05,VALID,1009.13,VALID,0.5,VALID,104,VALID,0,VALID,23.9863,VALID,21,VALID,2.20234,
2012-05-21, 00:51:05,VALID,1009.08,VALID,1,VALID,104,VALID,0.112112,VALID,23.8304,VALID,13,VALID,2.88867,
2012-05-21, 00:52:05,VALID,1009.05,VALID,1.5,VALID,104,VALID,0,VALID,23.694,VALID,355,VALID,3.24844,
2012-05-21, 00:53:05,VALID,1008.95,VALID,2,VALID,104,VALID,0,VALID,23.5381,VALID,11,VALID,1.62891,
2012-05-21, 00:54:05,VALID,1008.99,VALID,1.5,VALID,104,VALID,0,VALID,23.4602,VALID,337,VALID,1.55664,
2012-05-21, 00:55:05,VALID,1008.96,VALID,2,VALID,104,VALID,0.112112,VALID,23.3823,VALID,345,VALID,4.42969,
2012-05-21, 00:56:05,VALID,1008.8,VALID,1.5,VALID,104,VALID,0,VALID,23.3238,VALID,346,VALID,2.20742,
2012-05-21, 00:57:05,VALID,1008.76,VALID,2,VALID,104,VALID,0,VALID,23.2848,VALID,339,VALID,3.04102,
2012-05-21, 00:58:05,VALID,1008.75,VALID,1.5,VALID,104,VALID,0,VALID,23.2246,VALID,336,VALID,2.71016,
2012-05-21, 00:59:05,VALID,1008.68,VALID,2.5,VALID,104,VALID,0,VALID,23.2051,VALID,328,VALID,2.29609,
2012-05-21, 01:00:05,VALID,1008.62,VALID,2,VALID,104,VALID,0,VALID,23.1679,VALID,350,VALID,1.96172,
2012-05-21, 01:01:05,VALID,1008.63,VALID,2,VALID,104,VALID,0,VALID,23.1485,VALID,359,VALID,2.00273,
2012-05-21, 01:02:05,VALID,1008.62,VALID,2,VALID,104,VALID,0,VALID,23.129,VALID,16,VALID,2.50898,
2012-05-21, 01:03:05,VALID,1008.67,VALID,1.5,VALID,104,VALID,0,VALID,23.1095,VALID,357,VALID,3.57422,
2012-05-21, 01:04:05,VALID,1008.73,VALID,1.5,VALID,104,VALID,0,VALID,23.09,VALID,340,VALID,2.03477,
2012-05-21, 01:05:05,VALID,1008.83,VALID,1.5,VALID,104,VALID,0,VALID,23.0705,VALID,341,VALID,1.225,
2012-05-21, 01:06:05,VALID,1008.83,VALID,0.5,VALID,104,VALID,0,VALID,23.0511,VALID,335,VALID,3.63672,
2012-05-21, 01:07:05,VALID,1008.82,VALID,1,VALID,104,VALID,0,VALID,23.0528,VALID,326,VALID,2.3668,
2012-05-21, 01:08:05,VALID,1009,VALID,0.5,VALID,104,VALID,0,VALID,22.9714,VALID,3,VALID,2.7832,
2012-05-21, 01:09:05,VALID,1009.13,VALID,0.5,VALID,104,VALID,0,VALID,22.9731,VALID,326,VALID,0.948047,
2012-05-21, 01:10:05,VALID,1009.23,VALID,0.5,VALID,104,VALID,0,VALID,22.9926,VALID,322,VALID,1.60352,
2012-05-21, 01:11:05,VALID,1009.27,VALID,1.5,VALID,104,VALID,0,VALID,22.9926,VALID,315,VALID,0.944922,
2012-05-21, 01:12:05,VALID,1009.39,VALID,1,VALID,104,VALID,0.112112,VALID,22.9731,VALID,17,VALID,1.60938,
2012-05-21, 01:13:05,VALID,1009.44,VALID,0.5,VALID,104,VALID,0,VALID,22.9731,VALID,332,VALID,2.04609,
2012-05-21, 01:14:05,VALID,1009.41,VALID,0.5,VALID,104,VALID,0.112112,VALID,22.9731,VALID,305,VALID,1.17148,
2012-05-21, 01:15:05,VALID,1009.47,VALID,1,VALID,104,VALID,0,VALID,22.9342,VALID,14,VALID,2.26094,
2012-05-21, 01:16:05,VALID,1009.53,VALID,0,VALID,104,VALID,0,VALID,22.8935,VALID,341,VALID,1.57148,
2012-05-21, 01:17:05,VALID,1009.57,VALID,0.5,VALID,104,VALID,0.112112,VALID,22.9147,VALID,3,VALID,1.53086,
2012-05-21, 01:18:05,VALID,1009.62,VALID,0.5,VALID,104,VALID,0,VALID,22.9342,VALID,25,VALID,2.99297,
2012-05-21, 01:19:05,VALID,1009.65,VALID,1,VALID,104,VALID,0,VALID,22.9342,VALID,4,VALID,3.13984,
2012-05-21, 01:20:05,VALID,1009.64,VALID,1,VALID,104,VALID,0,VALID,22.9342,VALID,9,VALID,0.852734,
2012-05-21, 01:21:05,VALID,1009.61,VALID,1,VALID,104,VALID,0,VALID,22.9147,VALID,353,VALID,2.50703,
2012-05-21, 01:22:05,VALID,1009.57,VALID,0.5,VALID,104,VALID,0,VALID,22.9147,VALID,53,VALID,1.66406,
2012-05-21, 01:23:05,VALID,1009.54,VALID,0.5,VALID,104,VALID,0,VALID,22.8935,VALID,65,VALID,0.773047,
2012-05-21, 01:24:05,VALID,1009.52,VALID,1,VALID,104,VALID,0,VALID,22.8935,VALID,11,VALID,0.794531,
2012-05-21, 01:25:04,VALID,1009.47,VALID,0.5,VALID,104,VALID,0.112112,VALID,22.8952,VALID,19,VALID,1.95195,
2012-05-21, 01:26:04,VALID,1009.4,VALID,1,VALID,104,VALID,0,VALID,22.8952,VALID,46,VALID,1.50039,
2012-05-21, 01:27:04,VALID,1009.3,VALID,0.5,VALID,104,VALID,0.112112,VALID,22.874,VALID,60,VALID,0.925,
2012-05-21, 01:28:04,VALID,1009.22,VALID,0.5,VALID,104,VALID,0.112112,VALID,22.8562,VALID,43,VALID,1.72266,
2012-05-21, 01:29:04,VALID,1009.2,VALID,1,VALID,104,VALID,0,VALID,22.835,VALID,9,VALID,0.661328,
2012-05-21, 01:30:04,VALID,1009.12,VALID,0.5,VALID,104,VALID,0,VALID,22.8368,VALID,48,VALID,1.43242,
2012-05-21, 01:31:04,VALID,1009.12,VALID,0.5,VALID,104,VALID,0.112112,VALID,22.8173,VALID,71,VALID,0.255078,
2012-05-21, 01:32:04,VALID,1009.09,VALID,0.5,VALID,104,VALID,0.112112,VALID,22.8562,VALID,351,VALID,0.446094,
2012-05-21, 01:33:04,VALID,1009.1,VALID,0,VALID,104,VALID,0,VALID,22.8173,VALID,41,VALID,1.00391,
2012-05-21, 01:34:04,VALID,1009.09,VALID,0.5,VALID,104,VALID,0,VALID,22.7588,VALID,68,VALID,1.78867,
2012-05-21, 01:35:04,VALID,1009.12,VALID,0.5,VALID,104,VALID,0.112112,VALID,22.7588,VALID,54,VALID,1.08906,
2012-05-21, 01:36:04,VALID,1009.09,VALID,0,VALID,104,VALID,0,VALID,22.7004,VALID,59,VALID,1.65234,
2012-05-21, 01:37:04,VALID,1009.09,VALID,0.5,VALID,104,VALID,0,VALID,22.6809,VALID,66,VALID,1.60742,
2012-05-21, 01:38:04,VALID,1009.07,VALID,0,VALID,104,VALID,0,VALID,22.6614,VALID,42,VALID,1.33203,
2012-05-21, 01:39:04,VALID,1009.09,VALID,0.5,VALID,104,VALID,0.112112,VALID,22.603,VALID,31,VALID,0.977344,
2012-05-21, 01:40:04,VALID,1009.1,VALID,0,VALID,104,VALID,0.112112,VALID,22.5818,VALID,338,VALID,1.48867,
2012-05-21, 01:41:04,VALID,1009.1,VALID,0,VALID,104,VALID,0,VALID,22.603,VALID,11,VALID,0.455469,
2012-05-21, 01:42:04,VALID,1009.13,VALID,0.5,VALID,104,VALID,0,VALID,22.5835,VALID,19,VALID,0.0953125,
2012-05-21, 01:43:04,VALID,1009.2,VALID,0,VALID,104,VALID,0.112112,VALID,22.564,VALID,351,VALID,1.3957,
2012-05-21, 01:44:04,VALID,1009.31,VALID,0,VALID,104,VALID,0,VALID,22.5446,VALID,322,VALID,0.648438,
2012-05-21, 01:45:04,VALID,1009.38,VALID,0.5,VALID,104,VALID,0,VALID,22.5234,VALID,305,VALID,0.963281,
2012-05-21, 01:46:04,VALID,1009.38,VALID,0,VALID,104,VALID,0.112112,VALID,22.5446,VALID,339,VALID,0.448828,
2012-05-21, 01:47:04,VALID,1009.42,VALID,0.5,VALID,104,VALID,0.112112,VALID,22.5835,VALID,322,VALID,0.507813,
2012-05-21, 01:48:04,VALID,1009.38,VALID,0.5,VALID,104,VALID,0.112112,VALID,22.5623,VALID,321,VALID,0.615234,
2012-05-21, 01:49:04,VALID,1009.34,VALID,0.5,VALID,104,VALID,0.112112,VALID,22.5623,VALID,331,VALID,0.577344,
2012-05-21, 01:50:04,VALID,1009.33,VALID,0.5,VALID,104,VALID,0,VALID,22.5835,VALID,15,VALID,0.847656,
2012-05-21, 01:51:04,VALID,1009.31,VALID,0,VALID,104,VALID,0,VALID,22.564,VALID,32,VALID,0.777734,
2012-05-21, 01:52:04,VALID,1009.24,VALID,0.5,VALID,104,VALID,0.112112,VALID,22.5056,VALID,51,VALID,0.691016,
2012-05-21, 01:53:04,VALID,1009.22,VALID,0,VALID,104,VALID,0.112112,VALID,22.4861,VALID,53,VALID,1.17344,
2012-05-21, 01:54:04,VALID,1009.21,VALID,0,VALID,104,VALID,0.112112,VALID,22.4861,VALID,67,VALID,1.05273,
2012-05-21, 01:55:04,VALID,1009.24,VALID,0,VALID,104,VALID,0.112112,VALID,22.4667,VALID,78,VALID,1.02969,
2012-05-21, 01:56:04,VALID,1009.28,VALID,0.5,VALID,104,VALID,0,VALID,22.5039,VALID,83,VALID,1.53672,
2012-05-21, 01:57:04,VALID,1009.37,VALID,0,VALID,104,VALID,0.112112,VALID,22.5251,VALID,89,VALID,1.28984,
2012-05-21, 01:58:04,VALID,1009.45,VALID,0,VALID,104,VALID,0.112112,VALID,22.5835,VALID,108,VALID,1.65977,
2012-05-21, 01:59:04,VALID,1009.52,VALID,0,VALID,104,VALID,0.112112,VALID,22.564,VALID,128,VALID,1.45625,
2012-05-21, 02:00:04,VALID,1009.59,VALID,0,VALID,104,VALID,0,VALID,22.5835,VALID,145,VALID,1.54336,
2012-05-21, 02:01:04,VALID,1009.65,VALID,0,VALID,104,VALID,0,VALID,22.6225,VALID,161,VALID,1.1332,
2012-05-21, 02:02:04,VALID,1009.68,VALID,0,VALID,104,VALID,0.112112,VALID,22.564,VALID,145,VALID,1.6625,
2012-05-21, 02:03:04,VALID,1009.7,VALID,0,VALID,104,VALID,0.112112,VALID,22.5446,VALID,155,VALID,1.60156,
2012-05-21, 02:04:04,VALID,1009.66,VALID,0.5,VALID,104,VALID,0,VALID,22.5234,VALID,92,VALID,1.24492,
2012-05-21, 02:05:04,VALID,1009.67,VALID,0,VALID,104,VALID,0,VALID,22.5446,VALID,147,VALID,1.21563,
2012-05-21, 02:06:04,VALID,1009.65,VALID,0,VALID,104,VALID,0,VALID,22.5234,VALID,107,VALID,1.71445,
2012-05-21, 02:07:04,VALID,1009.62,VALID,0,VALID,104,VALID,0,VALID,22.564,VALID,76,VALID,1.32148,
2012-05-21, 02:08:04,VALID,1009.62,VALID,0,VALID,104,VALID,0,VALID,22.5234,VALID,80,VALID,1.40898,
2012-05-21, 02:09:04,VALID,1009.62,VALID,0,VALID,104,VALID,0.112112,VALID,22.5623,VALID,73,VALID,1.37812,
2012-05-21, 02:10:04,VALID,1009.65,VALID,0,VALID,104,VALID,0.112112,VALID,22.603,VALID,84,VALID,0.908594,
2012-05-21, 02:11:04,VALID,1009.7,VALID,0.5,VALID,104,VALID,0.112112,VALID,22.5818,VALID,88,VALID,1.07656,
2012-05-21, 02:12:04,VALID,1009.78,VALID,0,VALID,104,VALID,0.112112,VALID,22.5818,VALID,119,VALID,1.28711,
2012-05-21, 02:13:04,VALID,1009.82,VALID,0,VALID,104,VALID,0,VALID,22.603,VALID,129,VALID,1.34961,
2012-05-21, 02:14:04,VALID,1009.9,VALID,0,VALID,104,VALID,0,VALID,22.5623,VALID,128,VALID,1.26602,
2012-05-21, 02:15:04,VALID,1009.95,VALID,0.5,VALID,104,VALID,0.112112,VALID,22.5429,VALID,136,VALID,2.11953,
2012-05-21, 02:16:04,VALID,1010.04,VALID,0,VALID,104,VALID,0.112112,VALID,22.5251,VALID,150,VALID,1.38867,
2012-05-21, 02:17:04,VALID,1010.07,VALID,0,VALID,104,VALID,0.112112,VALID,22.564,VALID,124,VALID,1.04062,
2012-05-21, 02:18:04,VALID,1010.12,VALID,0.5,VALID,104,VALID,0,VALID,22.5446,VALID,132,VALID,1.90586,
2012-05-21, 02:19:04,VALID,1010.16,VALID,0,VALID,104,VALID,0.112112,VALID,22.5429,VALID,119,VALID,1.13047,
2012-05-21, 02:20:04,VALID,1010.17,VALID,0,VALID,104,VALID,0.112112,VALID,22.5056,VALID,100,VALID,1.5293,
2012-05-21, 02:21:04,VALID,1010.21,VALID,0,VALID,104,VALID,0.112112,VALID,22.5039,VALID,143,VALID,1.01875,
2012-05-21, 02:22:04,VALID,1010.21,VALID,0,VALID,104,VALID,0.112112,VALID,22.4861,VALID,154,VALID,1.9043,
2012-05-21, 02:23:04,VALID,1010.23,VALID,0,VALID,104,VALID,0.112112,VALID,22.465,VALID,136,VALID,1.48438,
2012-05-21, 02:24:04,VALID,1010.23,VALID,0.5,VALID,104,VALID,0.112112,VALID,22.5039,VALID,149,VALID,1.43047,
2012-05-21, 02:25:04,VALID,1010.27,VALID,0,VALID,104,VALID,0.112112,VALID,22.4861,VALID,159,VALID,1.47969,
2012-05-21, 02:26:04,VALID,1010.22,VALID,0,VALID,104,VALID,0.112112,VALID,22.5039,VALID,130,VALID,1.57891,
2012-05-21, 02:27:04,VALID,1010.22,VALID,0,VALID,104,VALID,0.112112,VALID,22.5251,VALID,123,VALID,1.83984,
2012-05-21, 02:28:04,VALID,1010.2,VALID,0,VALID,104,VALID,0.112112,VALID,22.5446,VALID,122,VALID,2.15742,
2012-05-21, 02:29:04,VALID,1010.21,VALID,0.5,VALID,104,VALID,0,VALID,22.5234,VALID,119,VALID,2.04141,
2012-05-21, 02:30:04,VALID,1010.18,VALID,0,VALID,104,VALID,0,VALID,22.5234,VALID,109,VALID,2.46406,
2012-05-21, 02:31:04,VALID,1010.14,VALID,0,VALID,104,VALID,0.112112,VALID,22.5039,VALID,119,VALID,1.89844,
2012-05-21, 02:32:04,VALID,1010.1,VALID,0,VALID,104,VALID,0,VALID,22.5251,VALID,132,VALID,2.04063,
2012-05-21, 02:33:04,VALID,1010.08,VALID,0,VALID,104,VALID,0.112112,VALID,22.5056,VALID,112,VALID,1.58008,
2012-05-21, 02:34:04,VALID,1010.03,VALID,0,VALID,104,VALID,0.112112,VALID,22.5056,VALID,121,VALID,1.9543,
2012-05-21, 02:35:04,VALID,1009.98,VALID,0,VALID,104,VALID,0,VALID,22.5056,VALID,127,VALID,1.85156,
2012-05-21, 02:36:04,VALID,1009.95,VALID,0,VALID,104,VALID,0.112112,VALID,22.5039,VALID,94,VALID,1.32422,
2012-05-21, 02:37:04,VALID,1009.91,VALID,0,VALID,104,VALID,0.112112,VALID,22.5039,VALID,91,VALID,1.48633,
2012-05-21, 02:38:04,VALID,1009.89,VALID,0,VALID,104,VALID,0,VALID,22.5251,VALID,126,VALID,0.805469,
2012-05-21, 02:39:04,VALID,1009.88,VALID,0,VALID,104,VALID,0,VALID,22.5446,VALID,112,VALID,0.385938,
2012-05-21, 02:40:04,VALID,1009.89,VALID,0,VALID,104,VALID,0.112112,VALID,22.5446,VALID,82,VALID,0.545703,
2012-05-21, 02:41:04,VALID,1009.87,VALID,0.5,VALID,104,VALID,0.112112,VALID,22.5251,VALID,82,VALID,0.205859,
2012-05-21, 02:42:04,VALID,1009.88,VALID,0,VALID,104,VALID,0.112112,VALID,22.564,VALID,120,VALID,0.55625,
2012-05-21, 02:43:04,VALID,1009.86,VALID,0,VALID,104,VALID,0.112112,VALID,22.5446,VALID,155,VALID,0.880078,
2012-05-21, 02:44:04,VALID,1009.87,VALID,0,VALID,104,VALID,0,VALID,22.5039,VALID,132,VALID,0.955078,
2012-05-21, 02:45:04,VALID,1009.86,VALID,0,VALID,104,VALID,0.112112,VALID,22.5039,VALID,134,VALID,0.819531,
2012-05-21, 02:46:04,VALID,1009.89,VALID,0,VALID,104,VALID,0.112112,VALID,22.5039,VALID,135,VALID,0.707812,
2012-05-21, 02:47:04,VALID,1009.88,VALID,0,VALID,104,VALID,0,VALID,22.5056,VALID,135,VALID,0.728516,
2012-05-21, 02:48:04,VALID,1009.86,VALID,0,VALID,104,VALID,0.112112,VALID,22.5251,VALID,135,VALID,0.667969,
2012-05-21, 02:49:04,VALID,1009.85,VALID,0,VALID,104,VALID,0,VALID,22.4844,VALID,135,VALID,0.314063,
2012-05-21, 02:50:04,VALID,1009.85,VALID,0,VALID,104,VALID,0.112112,VALID,22.564,VALID,135,VALID,0.340234,
2012-05-21, 02:51:04,VALID,1009.82,VALID,0,VALID,104,VALID,0,VALID,22.5835,VALID,135,VALID,0.535547,
2012-05-21, 02:52:04,VALID,1009.78,VALID,0,VALID,104,VALID,0,VALID,22.5623,VALID,129,VALID,0.791797,
2012-05-21, 02:53:04,VALID,1009.74,VALID,0,VALID,104,VALID,0,VALID,22.5835,VALID,129,VALID,0.407031,
2012-05-21, 02:54:04,VALID,1009.75,VALID,0,VALID,104,VALID,0.112112,VALID,22.564,VALID,138,VALID,0.4625,
2012-05-21, 02:55:04,VALID,1009.71,VALID,0,VALID,104,VALID,0,VALID,22.603,VALID,138,VALID,0.36875,
2012-05-21, 02:56:04,VALID,1009.69,VALID,0,VALID,104,VALID,0.112112,VALID,22.603,VALID,136,VALID,0.254687,
2012-05-21, 02:57:04,VALID,1009.67,VALID,0,VALID,104,VALID,0,VALID,22.5835,VALID,117,VALID,0.566016,
2012-05-21, 02:58:04,VALID,1009.67,VALID,0,VALID,104,VALID,0.112112,VALID,22.5039,VALID,89,VALID,0.609375,
2012-05-21, 02:59:04,VALID,1009.66,VALID,0,VALID,104,VALID,0.112112,VALID,22.5251,VALID,61,VALID,0.732813,
2012-05-21, 03:00:04,VALID,1009.65,VALID,0,VALID,104,VALID,0.112112,VALID,22.5234,VALID,53,VALID,0.396094,
2012-05-21, 03:01:04,VALID,1009.65,VALID,0,VALID,104,VALID,0,VALID,22.5446,VALID,53,VALID,0.350781,
2012-05-21, 03:02:04,VALID,1009.65,VALID,0,VALID,104,VALID,0,VALID,22.564,VALID,53,VALID,0.787891,
2012-05-21, 03:03:04,VALID,1009.65,VALID,0,VALID,104,VALID,0,VALID,22.5835,VALID,53,VALID,0.648828,
2012-05-21, 03:04:04,VALID,1009.67,VALID,0,VALID,104,VALID,0.112112,VALID,22.5623,VALID,53,VALID,0.3875,
2012-05-21, 03:05:04,VALID,1009.68,VALID,0,VALID,104,VALID,0,VALID,22.5835,VALID,77,VALID,0.668359,
2012-05-21, 03:06:04,VALID,1009.69,VALID,0,VALID,104,VALID,0,VALID,22.6225,VALID,137,VALID,0.975,
2012-05-21, 03:07:04,VALID,1009.67,VALID,0,VALID,104,VALID,0,VALID,22.642,VALID,148,VALID,0.569922,
2012-05-21, 03:08:04,VALID,1009.67,VALID,0,VALID,104,VALID,0.112112,VALID,22.6225,VALID,159,VALID,0.605078,
2012-05-21, 03:09:04,VALID,1009.68,VALID,0.5,VALID,104,VALID,0.112112,VALID,22.5835,VALID,165,VALID,0.764063,
2012-05-21, 03:10:04,VALID,1009.71,VALID,0,VALID,104,VALID,0.112112,VALID,22.5835,VALID,166,VALID,0.510938,
2012-05-21, 03:11:04,VALID,1009.7,VALID,0,VALID,104,VALID,0.112112,VALID,22.603,VALID,166,VALID,0.297656,
2012-05-21, 03:12:04,VALID,1009.69,VALID,0,VALID,104,VALID,0.112112,VALID,22.603,VALID,195,VALID,0.586719,
2012-05-21, 03:13:04,VALID,1009.67,VALID,0,VALID,104,VALID,0,VALID,22.5446,VALID,195,VALID,0.396094,
2012-05-21, 03:14:04,VALID,1009.68,VALID,0,VALID,104,VALID,0.112112,VALID,22.564,VALID,195,VALID,0.223438,
2012-05-21, 03:15:04,VALID,1009.68,VALID,0,VALID,104,VALID,0,VALID,22.603,VALID,195,VALID,0.0410156,
2012-05-21, 03:16:04,VALID,1009.67,VALID,0,VALID,104,VALID,0,VALID,22.603,VALID,195,VALID,0,
2012-05-21, 03:17:04,VALID,1009.69,VALID,0,VALID,104,VALID,0,VALID,22.5818,VALID,195,VALID,0,
2012-05-21, 03:18:04,VALID,1009.72,VALID,0,VALID,104,VALID,0.112112,VALID,22.5818,VALID,250,VALID,0.433594,
2012-05-21, 03:19:04,VALID,1009.75,VALID,0,VALID,104,VALID,0.112112,VALID,22.6013,VALID,250,VALID,0.560938,
2012-05-21, 03:20:04,VALID,1009.79,VALID,0,VALID,104,VALID,0.112112,VALID,22.6225,VALID,294,VALID,0.758203,
2012-05-21, 03:21:04,VALID,1009.82,VALID,0,VALID,104,VALID,0,VALID,22.603,VALID,297,VALID,0.464453,
2012-05-21, 03:22:04,VALID,1009.87,VALID,0,VALID,104,VALID,0.112112,VALID,22.603,VALID,297,VALID,0.492578,
2012-05-21, 03:23:04,VALID,1009.89,VALID,0,VALID,104,VALID,0.112112,VALID,22.603,VALID,297,VALID,0.375781,
2012-05-21, 03:24:04,VALID,1009.9,VALID,0,VALID,104,VALID,0.112112,VALID,22.6225,VALID,297,VALID,0.296875,
2012-05-21, 03:25:04,VALID,1009.95,VALID,0,VALID,104,VALID,0.112112,VALID,22.5818,VALID,299,VALID,0.194141,
2012-05-21, 03:26:04,VALID,1009.99,VALID,0,VALID,104,VALID,0.112112,VALID,22.6013,VALID,299,VALID,0.296094,
2012-05-21, 03:27:04,VALID,1010.04,VALID,0,VALID,104,VALID,0.112112,VALID,22.6402,VALID,299,VALID,0,
2012-05-21, 03:28:04,VALID,1010.09,VALID,0,VALID,104,VALID,0,VALID,22.6614,VALID,270,VALID,0.590234,
2012-05-21, 03:29:04,VALID,1010.13,VALID,0,VALID,104,VALID,0,VALID,22.7004,VALID,221,VALID,0.853125,
2012-05-21, 03:30:04,VALID,1010.2,VALID,0,VALID,104,VALID,0.112112,VALID,22.7004,VALID,221,VALID,0.889453,
2012-05-21, 03:31:04,VALID,1010.25,VALID,0,VALID,104,VALID,0,VALID,22.7004,VALID,209,VALID,0.951172,
2012-05-21, 03:32:04,VALID,1010.29,VALID,0,VALID,104,VALID,0.112112,VALID,22.7004,VALID,209,VALID,0.923828,
2012-05-21, 03:33:04,VALID,1010.33,VALID,0,VALID,104,VALID,0.112112,VALID,22.7004,VALID,213,VALID,1.28125,
2012-05-21, 03:34:04,VALID,1010.38,VALID,0,VALID,104,VALID,0.112112,VALID,22.6597,VALID,218,VALID,0.562109,
2012-05-21, 03:35:04,VALID,1010.39,VALID,0,VALID,104,VALID,0,VALID,22.6225,VALID,194,VALID,1.34531,
2012-05-21, 03:36:04,VALID,1010.37,VALID,0,VALID,104,VALID,0.112112,VALID,22.5835,VALID,207,VALID,0.825391,
2012-05-21, 03:37:04,VALID,1010.39,VALID,0,VALID,104,VALID,0.112112,VALID,22.564,VALID,208,VALID,0.66875,
2012-05-21, 03:38:04,VALID,1010.39,VALID,0,VALID,104,VALID,0.112112,VALID,22.5446,VALID,208,VALID,0.193359,
2012-05-21, 03:39:04,VALID,1010.37,VALID,0.5,VALID,104,VALID,0.112112,VALID,22.5623,VALID,208,VALID,0.385156,
2012-05-21, 03:40:04,VALID,1010.36,VALID,0,VALID,104,VALID,0.112112,VALID,22.5429,VALID,208,VALID,0.0195313,
2012-05-21, 03:41:04,VALID,1010.37,VALID,0,VALID,104,VALID,0.112112,VALID,22.5039,VALID,277,VALID,0.360547,
2012-05-21, 03:42:04,VALID,1010.34,VALID,0,VALID,104,VALID,0.112112,VALID,22.5056,VALID,270,VALID,0.194531,
2012-05-21, 03:43:04,VALID,1010.32,VALID,0,VALID,104,VALID,0,VALID,22.4667,VALID,282,VALID,0.416797,
2012-05-21, 03:44:04,VALID,1010.3,VALID,0,VALID,104,VALID,0,VALID,22.4667,VALID,286,VALID,0.437109,
2012-05-21, 03:45:04,VALID,1010.26,VALID,0,VALID,104,VALID,0,VALID,22.4065,VALID,286,VALID,0,